Regional Weather Roundup
Issued by NWS Goodland, KS

Home | Current Version | Previous Version | Text Only | Print | Product List | Glossary On
Versions: 1 2 3 4 5 6 7 8 9 10 11 12 13 14 15 16 17 18 19 20 21 22 23 24 25 26 27 28 29 30 31 32 33 34 35 36 37 38 39 40 41 42 43 44 45 46 47 48 49 50
000
ASUS43 KGLD 222308
RWRGLD

GOODLAND FORECAST AREA HOURLY WEATHER ROUNDUP
NATIONAL WEATHER SERVICE GOODLAND KS
500 PM MDT MON MAY 22 2017

...OFFICIAL OBSERVATIONS...

CITY           SKY/WX    TMP DP  RH WIND       PRES   REMARKS
GOODLAND KS    PTSUNNY   68  43  40 N15       29.97R
HILL CITY KS   PTSUNNY   74  43  32 NW9       29.90F
IMPERIAL NEB   CLOUDY    59  42  53 N32G41    30.02R
MCCOOK NEB     MOSUNNY   71  40  32 NW17      29.93S
AKRON CO       LGT RAIN  49  41  74 N28G36    30.11R
BURLINGTON CO  MOSUNNY   66  42  41 N14       30.00S
LIMON CO       PTSUNNY   65  32  29 NW17G23   30.05S
$$

...UNOFFICIAL OBSERVATIONS...

CITY           SKY/WX    TMP DP  RH WIND       PRES   REMARKS
LENORA KS        N/A     73  32  22 MISG        N/A
NORTON KS      SUNNY     68  39  34 NW13G25   29.91R
SHARON SPRINGS   N/A     70  49  46 CALM        N/A
TRENTON NEB      N/A     63  32  31 NW12        N/A
KIT CARSON CO    N/A     68  41  36 MISG        N/A
YUMA CO        LGT RAIN  50  34  53 N23G29    30.09R
$$



USA.gov is the U.S. government's official web portal to all federal, state and local government web resources and services.